STARLINK-3688, 52310

Orbit data source: Space-Track

STARLINK-3688, 52310 is a payload satellite owned by SpaceX/Seattle (US) in LEO that was launched on Thu, 21 Apr 2022 UTC via an FALCON 9 launch vehicle from the Air Force Eastern Test Range (AFETR). Payload-class satellites include a variety of spacecraft equipped with specific instruments for various scientific and technological missions. These include communications satellites like Starlink; space stations such as the ISS; scientific satellites like the Hubble; Earth observation satellites from companies like Planet Labs, Umbra, and HawkEye 360; GPS; miniature CubeSats for education and research; and military/defense satellites.

Loading next visibility...
Identifier
52310, 2022-041BB
Orbit
LEO
Country
Flag of USUS
Related business
Manufacturer
SpaceX/Seattle
Mission
Operational Commercial Communications
Bus & Motor
STARLINK, Unknown motor
Mass
297 kg wet, ~275 kg dry
Launch date (UTC)
2022-04-21 (4 years ago)
Launch vehicle
FALCON 9
Launch site
Air Force Eastern Test Range (AFETR)
Object type
Payload
Rocket body
Debris
Shape & HBR
Box + 1 Pan, 10.1 m
Radar Cross Section
11.087 m², Large (>1 m²)

Expand to show TLE details & history
Last TLE update: 15 hours ago

TLE from 15 hours ago
0 STARLINK-3688
1 52310U 22041BB  26236.87033297  .00004585  00000-0  15937-3 0  9998
2 52310  53.1601  43.7491 0001322  77.4190 282.6960 15.31711710241392
Epoch: 2026-08-24T20:53Z
TLE epoch observation values (Epoch: 2026-08-24T20:53:16.768Z)
Latitude
0.00003°
Longitude
117.28343°
Altitude
471.407 km
Speed
7.632 km/s
True Right ascension
02h 54m 59s
True Declination
0° 00' 00"
Sunlit
Object was in daylight at epoch
Visualization orbit readout
Latitude
Unknown
Longitude
Unknown
Altitude
Unknown
Speed
Unknown
Apparent Right ascension
Unknown
Apparent Declination
Unknown
Sunlit
N/A
Visualization observer readout
Local Sidereal Time
02:51:34
Azimuth
Unknown
Elevation
Unknown
Doppler factor
Unknown
Orbital elements
Apogee altitude
471.867 km
Perigee altitude
470.056 km
Semi-major axis
6,849.099 km
Eccentricity
0.00013
Inclination
53.1601°
RAAN
43.7491°
Arg. of periapsis
77.419°
True anomaly
282.68122°
Mean anomaly
282.696°
Eccentric anomaly
282.68861°
Mean motion
3.82907 °/min
Orbital period
94.02 mins
BSTAR
0.00015937
Loading maneuver chart data...
Computing Atmospheric mass density...
Loading historical data...
Loading historical data...
Loading historical data...
Loading historical data...
Loading historical data...
Loading historical data...
Loading historical data...

Documentation

Showing up to 5 results
|